Anchor Point, AK (99556)

10:18 PM AKDT on June 24, 2017 (GMT -0800)
Wilderness Greenhouse | | Change Station

Elev 335 ft 59.72 °N, 151.72 °W | Updated 8 seconds ago

Clear
Clear
56.5 °F
Feels Like 56.5 °F
N
0.0
Wind Variable Wind from NNE

Today
High -- | Low -- °F
--% Chance of Precip.
Yesterday
High -- | Low -- °F
Precip. -- in
Pressure 30.07 in
Visibility 10.0 miles
Clouds Clear
Dew Point 47 °F
Humidity 70%
Rainfall 0.00 in
Snow Depth Not available.
4:46 AM 11:32 PM
New Moon, 2% visible
METAR PAHO 250553Z AUTO 26003KT 10SM CLR 17/09 A3007 RMK AO2 SLP183 T01720089 10183 20150 56007 TSNO $
Pressure 30.07 in
Visibility 10.0 miles
Clouds Clear
Dew Point 47 °F
Humidity 70%
Rainfall 0.00 in
Snow Depth Not available.
4:46 AM 11:32 PM
New Moon, 2% visible
METAR PAHO 250553Z AUTO 26003KT 10SM CLR 17/09 A3007 RMK AO2 SLP183 T01720089 10183 20150 56007 TSNO $

Get Severe Weather Alerts

Thanks for signing up!

Be on the lookout for a verification email in your inbox.

You'll start receiving the daily forecast at 6 AM.

×

10-Day Weather Forecast

Almanac

Astronomy

Jun. 24, 2017 Rise Set
Actual Time
Civil Twilight
Nautical Twilight
Astronomical Twilight
Moon
Length of Visible Light
Length of Day
Tomorrow will be .
, % of the Moon is Illuminated

Today's Extremes

State Highs State Lows

Community

WunderPhotos

Category 6

Welcome to Category 6. This is the collective home for Weather Underground's featured writeups by Dr. Jeff Masters (right), Bob Henson (left), Chris Burt, and other regular contributors.

Nearby

Air Quality

  Air Quality AQ Index Pollutant
Not available.

Snow Depth

Station Depth Elevation

Earthquake Activity

City Distance Mag. Time & Date
Minimum magnitude displayed is 2.5.

Coastal Water Temperatures

Place Temperature

Stations

Nearby Weather Stations

Station Location Temp. Windchill Dew Point Humidity Wind Precip. Elev Updated Type
                   

Watches & Warnings

There are currently no watches in effect.